sat.trackr.live / text

‹ back to catalog

STARLINK-31096

NORAD 58592 · 2023-200D

PAYLOAD ACTIVE UNKNOWN

§ Identity

Operator
Country
US
Launch date
2023-12-19
Launch site
AFETR
Launch vehicle
Mass (kg)
RCS (m²)

Purposes: comms

External: N2YO · Heavens-Above · Gunter

§ Orbital elements

Epoch: 2026-09-19T00:35:07.408320Z

Period
93.00 min
Inclination
42.9925°
Eccentricity
0.0023074
Mean motion
15.48351698 rev/d
Perigee alt
405.9 km
Apogee alt
437.2 km
Semi-major
6,799.7 km
B*
1.8378e-3
RAAN
145.2515°
Arg perigee
221.5208°
Mean anomaly
138.3898°
Rev number
15,331

§ Raw data

STARLINK-310961 58592U 23200D   26262.02439130  .00101659  00000+0  18378-2 0  99962 58592  42.9925 145.2515 0023074 221.5208 138.3898 15.48351698153314

JSON: /api/v1/satellites/58592 · /tle

For live sub-satellite position, see the globe view (requires WebGL).

§ Visibility from observer

Set your observer location to see the next 7 days of passes ≥ 10°. The values pass through the URL so the page stays shareable.

No JS? Fill the form by hand. The geolocation button needs JavaScript.